{"data":{"norad_id":53683,"intl_designator":"2022-105AM","name":"STARLINK-4625","alt_names":[],"object_type":"PAYLOAD","status":"ACTIVE","operator":null,"country":"US","launch_date":"2022-08-31","launch_site_code":"AFWTR","launch_vehicle":null,"mission":null,"orbit_class":"UNKNOWN","rcs_meters":null,"size_class":null,"mass_kg":null,"dimensions":null,"purposes":["comms"],"wikipedia_slug":null,"has_3d_model":false,"image_url":null,"decayed_at":null,"tle_current":{"epoch":"2026-09-20T14:34:09.558048Z","epoch_age_seconds":72067,"freshness":"FRESH","line1":"1 53683U 22105AM  26263.60705507  .00000645  00000+0  48582-4 0  9999","line2":"2 53683  97.2855 137.4302 0001745  75.7988 284.3433 15.05659228222561","mean_motion":15.05659228,"eccentricity":0.0001745,"inclination_deg":97.2855,"raan_deg":137.4302,"arg_perigee_deg":75.7988,"mean_anomaly_deg":284.3433,"bstar":4.8582e-5,"rev_number":22256,"period_min":95.639170751325,"perigee_km":548.27397854505,"apogee_km":550.69171787207,"semimajor_km":6927.6198482086,"source":"CELESTRAK","updated_at":"2026-09-21T09:00:32.978813Z"}}}